Location: Asheville, NC
(35.6000°N, 82.5500°W)
Time: 10:30:39
(UTC-04:00)

FO-29 - Pass Details

Date: 10 March 2018
Orbit: 799 x 1322 km, 98.5° (Epoch: 19 June)

Event Time Altitude Azimuth Distance (km) Brightness Sun altitude
Rises 20:17:07 0° 13° (NNE) 3,978 12.7 -21.8°
Reaches altitude 10° 20:19:36 10° 14° (NNE) 3,080 12.1 -22.3°
Maximum altitude 20:26:48 87° 102° (ESE) 1,258 9.9 -23.7°
Drops below altitude 10° 20:34:35 10° 193° (SSW) 3,320 12.2 -25.2°
Sets 20:37:21 0° 194° (SSW) 4,304 12.9 -25.8°
